HRT168 CYYZ-CYHZ

Flight info

Callsign HRT168
Flight time 1h 38m
Altitude 37000
Route DEDKI5 OLABA Q951 TALNO Q929 TOXAL DCT EBONY FUNDY5
Aircraft CL60/M-SBDE1E2E3FGHIJ4J5J7M3RWXYZ/LB1V1D1

Departure

Time 2026-05-04 21:48
Airport Toronto Pearson International Airport (CYYZ)

Arrival

Time 2026-05-04 23:26
Airport Halifax / Stanfield International Airport (CYHZ)
Time Latitude Longitude Altitude Speed Heading
2026-05-04 21:40 43.68880 -79.65127 555 ft 0 kts 43°
2026-05-04 21:42 43.68888 -79.65116 555 ft 6 kts 43°
2026-05-04 21:42 43.68938 -79.65032 555 ft 13 kts 52°
2026-05-04 21:42 43.68995 -79.64918 555 ft 13 kts 64°
2026-05-04 21:43 43.68971 -79.64790 553 ft 13 kts 89°
2026-05-04 21:43 43.69019 -79.64693 552 ft 13 kts 49°
2026-05-04 21:43 43.69088 -79.64588 552 ft 0 kts 49°
2026-05-04 21:43 43.69114 -79.64552 552 ft 10 kts 47°
2026-05-04 21:44 43.69179 -79.64458 551 ft 16 kts 47°
2026-05-04 21:44 43.69265 -79.64333 551 ft 16 kts 45°
2026-05-04 21:44 43.69342 -79.64209 551 ft 18 kts 64°
2026-05-04 21:44 43.69401 -79.64029 550 ft 20 kts 65°
2026-05-04 21:45 43.69449 -79.63885 550 ft 15 kts 65°
2026-05-04 21:45 43.69492 -79.63756 550 ft 12 kts 65°
2026-05-04 21:45 43.69512 -79.63644 550 ft 7 kts 107°
2026-05-04 21:45 43.69508 -79.63631 550 ft 0 kts 122°
2026-05-04 21:47 43.69482 -79.63592 550 ft 13 kts 135°
2026-05-04 21:47 43.69436 -79.63531 550 ft 4 kts 141°
2026-05-04 21:47 43.69340 -79.63613 549 ft 50 kts 224°
2026-05-04 21:48 43.68834 -79.64340 597 ft 144 kts 225°
2026-05-04 21:48 43.68094 -79.65419 1298 ft 164 kts 225°
2026-05-04 21:48 43.67413 -79.66654 2317 ft 173 kts 234°
2026-05-04 21:48 43.66711 -79.68112 3174 ft 196 kts 234°
2026-05-04 21:49 43.65939 -79.69689 4265 ft 208 kts 235°
2026-05-04 21:49 43.65044 -79.71468 4797 ft 245 kts 235°
2026-05-04 21:49 43.64052 -79.73393 4876 ft 236 kts 234°
2026-05-04 21:49 43.62950 -79.74921 5067 ft 218 kts 214°
2026-05-04 21:50 43.61484 -79.75758 5559 ft 245 kts 199°
2026-05-04 21:50 43.59724 -79.75946 6060 ft 265 kts 179°
2026-05-04 21:50 43.57933 -79.75133 6553 ft 278 kts 155°
2026-05-04 21:50 43.56517 -79.73251 6898 ft 297 kts 129°
2026-05-04 21:51 43.55425 -79.70732 6996 ft 314 kts 125°
2026-05-04 21:51 43.54328 -79.68124 7009 ft 307 kts 125°
2026-05-04 21:51 43.53282 -79.65639 7034 ft 292 kts 125°
2026-05-04 21:51 43.52280 -79.63271 7007 ft 280 kts 126°
2026-05-04 21:52 43.51330 -79.61009 7027 ft 268 kts 123°
2026-05-04 21:52 43.50737 -79.58583 6998 ft 268 kts 101°
2026-05-04 21:52 43.50800 -79.55924 7000 ft 293 kts 79°
2026-05-04 21:52 43.51332 -79.53114 6981 ft 316 kts 75°
2026-05-04 21:53 43.51920 -79.50177 7401 ft 322 kts 75°
2026-05-04 21:53 43.52508 -79.47197 8285 ft 322 kts 75°
2026-05-04 21:53 43.53090 -79.44233 9164 ft 320 kts 75°
2026-05-04 21:53 43.53694 -79.41322 9967 ft 322 kts 72°
2026-05-04 21:54 43.54391 -79.38392 10678 ft 325 kts 71°
2026-05-04 21:54 43.55079 -79.35374 11423 ft 328 kts 72°
2026-05-04 21:54 43.55755 -79.32372 12098 ft 331 kts 72°
2026-05-04 21:54 43.56433 -79.29360 12722 ft 334 kts 73°
2026-05-04 21:55 43.57126 -79.26273 13319 ft 338 kts 73°
2026-05-04 21:55 43.57817 -79.23183 13941 ft 340 kts 72°
2026-05-04 21:55 43.58522 -79.20026 14440 ft 344 kts 72°
2026-05-04 21:55 43.59215 -79.16921 15016 ft 346 kts 72°
2026-05-04 21:56 43.59940 -79.13662 15662 ft 357 kts 72°
2026-05-04 21:56 43.60680 -79.10327 16101 ft 379 kts 72°
2026-05-04 21:56 43.61493 -79.06659 16292 ft 406 kts 72°
2026-05-04 21:56 43.62336 -79.02847 16842 ft 420 kts 72°
2026-05-04 21:57 43.63194 -78.98961 17580 ft 426 kts 72°
2026-05-04 21:57 43.64053 -78.95060 18318 ft 432 kts 72°
2026-05-04 21:57 43.64930 -78.91068 19101 ft 435 kts 71°
2026-05-04 21:57 43.65802 -78.87094 19779 ft 441 kts 71°
2026-05-04 21:58 43.66696 -78.83009 20471 ft 445 kts 71°
2026-05-04 21:58 43.67588 -78.78931 21158 ft 451 kts 71°
2026-05-04 21:58 43.68498 -78.74757 21924 ft 456 kts 71°
2026-05-04 21:58 43.69485 -78.70570 22710 ft 459 kts 66°
2026-05-04 21:59 43.70686 -78.66500 23447 ft 463 kts 63°
2026-05-04 21:59 43.71968 -78.62385 24163 ft 467 kts 63°
2026-05-04 21:59 43.73253 -78.58237 24930 ft 470 kts 63°
2026-05-04 21:59 43.74532 -78.54096 25690 ft 472 kts 63°
2026-05-04 22:00 43.75812 -78.49941 26447 ft 472 kts 63°
2026-05-04 22:00 43.77104 -78.45734 27203 ft 472 kts 63°
2026-05-04 22:00 43.78390 -78.41541 27948 ft 472 kts 63°
2026-05-04 22:00 43.79678 -78.37328 28691 ft 471 kts 63°
2026-05-04 22:01 43.80959 -78.33130 29414 ft 470 kts 64°
2026-05-04 22:01 43.82240 -78.28923 30117 ft 468 kts 63°
2026-05-04 22:01 43.83499 -78.24783 30749 ft 468 kts 63°
2026-05-04 22:01 43.84771 -78.20590 31422 ft 466 kts 63°
2026-05-04 22:02 43.86024 -78.16452 32140 ft 463 kts 63°
2026-05-04 22:02 43.87266 -78.12339 32851 ft 459 kts 62°
2026-05-04 22:02 43.88479 -78.08315 33493 ft 456 kts 62°
2026-05-04 22:02 43.89693 -78.04282 34088 ft 454 kts 62°
2026-05-04 22:03 43.90905 -78.00253 34628 ft 452 kts 61°
2026-05-04 22:03 43.92107 -77.96248 35075 ft 452 kts 61°
2026-05-04 22:03 43.93314 -77.92221 35483 ft 451 kts 61°
2026-05-04 22:03 43.94508 -77.88232 35842 ft 451 kts 62°
2026-05-04 22:04 43.95708 -77.84213 36195 ft 450 kts 62°
2026-05-04 22:04 43.96899 -77.80222 36390 ft 454 kts 62°
2026-05-04 22:04 43.98123 -77.76119 36586 ft 457 kts 62°
2026-05-04 22:05 44.00526 -77.68024 36701 ft 456 kts 62°
2026-05-04 22:05 44.03003 -77.59673 36695 ft 472 kts 62°
2026-05-04 22:06 44.05512 -77.51179 36706 ft 485 kts 62°
2026-05-04 22:06 44.08087 -77.42476 36705 ft 490 kts 61°
2026-05-04 22:07 44.10942 -77.33781 36705 ft 489 kts 60°
2026-05-04 22:07 44.13792 -77.25155 36709 ft 488 kts 60°
2026-05-04 22:08 44.16629 -77.16538 36711 ft 487 kts 60°
2026-05-04 22:08 44.19446 -77.07951 36702 ft 487 kts 60°
2026-05-04 22:09 44.22272 -76.99303 36706 ft 487 kts 60°
2026-05-04 22:09 44.25065 -76.90730 36709 ft 487 kts 60°
2026-05-04 22:10 44.27876 -76.82069 36712 ft 487 kts 60°
2026-05-04 22:10 44.30676 -76.73413 36708 ft 486 kts 60°
2026-05-04 22:11 44.33433 -76.64864 36709 ft 486 kts 60°
2026-05-04 22:11 44.36201 -76.56249 36706 ft 486 kts 60°
2026-05-04 22:12 44.38954 -76.47652 36707 ft 486 kts 60°
2026-05-04 22:12 44.41705 -76.39037 36704 ft 486 kts 60°
2026-05-04 22:13 44.44464 -76.30366 36696 ft 486 kts 60°
2026-05-04 22:13 44.47204 -76.21726 36692 ft 486 kts 60°
2026-05-04 22:14 44.49933 -76.13070 36702 ft 486 kts 61°
2026-05-04 22:14 44.52658 -76.04390 36708 ft 487 kts 61°
2026-05-04 22:15 44.55368 -75.95731 36712 ft 486 kts 61°
2026-05-04 22:15 44.58078 -75.87040 36713 ft 485 kts 61°
2026-05-04 22:16 44.60768 -75.78384 36712 ft 486 kts 61°
2026-05-04 22:16 44.63467 -75.69672 36709 ft 486 kts 61°
2026-05-04 22:17 44.66023 -75.60958 36698 ft 488 kts 63°
2026-05-04 22:17 44.68463 -75.52000 36707 ft 488 kts 63°
2026-05-04 22:18 44.70882 -75.43095 36710 ft 489 kts 63°
2026-05-04 22:18 44.73363 -75.34195 36706 ft 487 kts 62°
2026-05-04 22:19 44.75968 -75.25351 36707 ft 487 kts 62°
2026-05-04 22:19 44.78557 -75.16526 36702 ft 488 kts 62°
2026-05-04 22:20 44.81139 -75.07695 36713 ft 489 kts 62°
2026-05-04 22:20 44.83704 -74.98888 36705 ft 489 kts 62°
2026-05-04 22:21 44.86269 -74.90050 36722 ft 489 kts 62°
2026-05-04 22:21 44.88828 -74.81203 36721 ft 488 kts 62°
2026-05-04 22:22 44.91364 -74.72352 36705 ft 489 kts 64°
2026-05-04 22:22 44.93424 -74.63208 36706 ft 492 kts 67°
2026-05-04 22:23 44.95424 -74.53977 36724 ft 491 kts 67°
2026-05-04 22:23 44.97412 -74.44775 36717 ft 491 kts 67°
2026-05-04 22:24 44.99372 -74.35603 36708 ft 492 kts 69°
2026-05-04 22:24 45.01129 -74.26244 36712 ft 493 kts 70°
2026-05-04 22:25 45.02860 -74.16915 36716 ft 493 kts 70°
2026-05-04 22:25 45.04593 -74.07539 36724 ft 492 kts 70°
2026-05-04 22:26 45.06312 -73.98194 36710 ft 493 kts 70°
2026-05-04 22:26 45.07744 -73.88740 36702 ft 499 kts 80°
2026-05-04 22:27 45.08173 -73.78943 36728 ft 501 kts 82°
2026-05-04 22:27 45.08558 -73.69100 36721 ft 501 kts 82°
2026-05-04 22:28 45.08935 -73.59271 36724 ft 501 kts 82°
2026-05-04 22:28 45.09285 -73.49480 36715 ft 500 kts 83°
2026-05-04 22:29 45.09616 -73.39692 36735 ft 500 kts 83°
2026-05-04 22:29 45.09940 -73.29913 36738 ft 499 kts 83°
2026-05-04 22:30 45.10258 -73.20032 36732 ft 500 kts 83°
2026-05-04 22:30 45.10567 -73.10216 36736 ft 500 kts 83°
2026-05-04 22:31 45.10867 -73.00397 36735 ft 500 kts 83°
2026-05-04 22:31 45.11158 -72.90616 36742 ft 499 kts 83°
2026-05-04 22:32 45.11440 -72.80842 36754 ft 499 kts 83°
2026-05-04 22:32 45.11715 -72.71043 36752 ft 499 kts 83°
2026-05-04 22:33 45.11982 -72.61243 36765 ft 499 kts 84°
2026-05-04 22:33 45.12241 -72.51450 36755 ft 500 kts 84°
2026-05-04 22:34 45.12492 -72.41605 36748 ft 500 kts 84°
2026-05-04 22:34 45.12734 -72.31780 36755 ft 499 kts 84°
2026-05-04 22:35 45.12967 -72.22014 36743 ft 499 kts 84°
2026-05-04 22:35 45.13187 -72.12450 36745 ft 500 kts 84°
2026-05-04 22:36 45.13405 -72.02626 36757 ft 500 kts 84°
2026-05-04 22:36 45.13614 -71.92806 36759 ft 501 kts 84°
2026-05-04 22:37 45.13815 -71.82989 36767 ft 501 kts 84°
2026-05-04 22:37 45.14010 -71.73109 37035 ft 503 kts 84°
2026-05-04 22:37 45.14105 -71.68106 36823 ft 505 kts 84°
2026-05-04 22:38 45.14194 -71.63233 36762 ft 500 kts 84°
2026-05-04 22:38 45.14162 -71.53422 36765 ft 500 kts 89°
2026-05-04 22:39 45.13802 -71.43629 36760 ft 501 kts 89°
2026-05-04 22:39 45.13437 -71.33785 36775 ft 502 kts 90°
2026-05-04 22:40 45.13064 -71.23928 36768 ft 501 kts 90°
2026-05-04 22:40 45.12685 -71.14076 36759 ft 502 kts 90°
2026-05-04 22:41 45.12298 -71.04198 36744 ft 503 kts 90°
2026-05-04 22:41 45.11905 -70.94389 36762 ft 502 kts 90°
2026-05-04 22:42 45.11502 -70.84513 36740 ft 501 kts 90°
2026-05-04 22:42 45.11093 -70.74693 36757 ft 502 kts 90°
2026-05-04 22:43 45.10675 -70.64873 36786 ft 504 kts 90°
2026-05-04 22:43 45.10247 -70.54987 36777 ft 503 kts 90°
2026-05-04 22:44 45.09814 -70.45178 36789 ft 502 kts 90°
2026-05-04 22:44 45.09370 -70.35313 36758 ft 503 kts 90°
2026-05-04 22:45 45.08917 -70.25435 36771 ft 504 kts 91°
2026-05-04 22:45 45.08221 -70.10620 36785 ft 504 kts 91°
2026-05-04 22:46 45.07748 -70.00758 36772 ft 505 kts 91°
2026-05-04 22:46 45.07275 -69.91099 36774 ft 505 kts 91°
2026-05-04 22:47 45.06786 -69.81262 36780 ft 505 kts 91°
2026-05-04 22:47 45.06284 -69.71338 36776 ft 505 kts 91°
2026-05-04 22:48 45.05776 -69.61468 36794 ft 506 kts 91°
2026-05-04 22:48 45.05271 -69.51804 36777 ft 506 kts 92°
2026-05-04 22:49 45.04747 -69.41946 36778 ft 506 kts 91°
2026-05-04 22:49 45.04209 -69.32014 36790 ft 506 kts 92°
2026-05-04 22:50 45.03666 -69.22137 36783 ft 507 kts 92°
2026-05-04 22:50 45.03113 -69.12224 36798 ft 508 kts 92°
2026-05-04 22:51 45.02547 -69.02254 36787 ft 508 kts 93°
2026-05-04 22:51 45.01978 -68.92370 36801 ft 508 kts 93°
2026-05-04 22:52 45.01396 -68.82414 36800 ft 508 kts 93°
2026-05-04 22:52 45.00810 -68.72553 36803 ft 508 kts 93°
2026-05-04 22:53 45.00211 -68.62603 36788 ft 508 kts 93°
2026-05-04 22:53 44.99606 -68.52705 36799 ft 509 kts 93°
2026-05-04 22:54 44.98990 -68.42765 36812 ft 509 kts 93°
2026-05-04 22:54 44.98365 -68.32836 36790 ft 509 kts 94°
2026-05-04 22:55 44.97731 -68.22884 36798 ft 510 kts 95°
2026-05-04 22:55 44.97085 -68.12894 36788 ft 510 kts 94°
2026-05-04 22:56 44.96434 -68.02969 36797 ft 510 kts 95°
2026-05-04 22:56 44.95770 -67.92966 36800 ft 511 kts 95°
2026-05-04 22:57 44.95102 -67.83051 36801 ft 510 kts 95°
2026-05-04 22:57 44.94424 -67.73111 36806 ft 510 kts 95°
2026-05-04 22:58 44.93737 -67.63181 36809 ft 510 kts 95°
2026-05-04 22:58 44.93039 -67.53202 36801 ft 511 kts 95°
2026-05-04 22:59 44.92334 -67.43251 36790 ft 511 kts 95°
2026-05-04 22:59 44.91618 -67.33278 36801 ft 511 kts 96°
2026-05-04 23:00 44.90895 -67.23335 36802 ft 512 kts 96°
2026-05-04 23:00 44.90268 -67.13330 36800 ft 512 kts 91°
2026-05-04 23:01 44.90260 -67.03303 36805 ft 513 kts 90°
2026-05-04 23:01 44.90262 -66.93326 36809 ft 513 kts 89°
2026-05-04 23:02 44.90538 -66.83266 36806 ft 513 kts 86°
2026-05-04 23:02 44.90868 -66.73254 36805 ft 514 kts 86°
2026-05-04 23:03 44.91182 -66.63254 36805 ft 513 kts 86°
2026-05-04 23:03 44.91484 -66.53244 36796 ft 513 kts 87°
2026-05-04 23:04 44.91775 -66.43227 36802 ft 514 kts 87°
2026-05-04 23:04 44.92056 -66.33152 36800 ft 514 kts 87°
2026-05-04 23:05 44.92325 -66.23125 36793 ft 513 kts 88°
2026-05-04 23:05 44.92585 -66.13068 36806 ft 513 kts 88°
2026-05-04 23:06 44.92834 -66.03017 36808 ft 514 kts 88°
2026-05-04 23:06 44.93074 -65.92969 36530 ft 518 kts 88°
2026-05-04 23:07 44.93192 -65.87890 36002 ft 515 kts 88°
2026-05-04 23:07 44.93307 -65.82843 35421 ft 513 kts 88°
2026-05-04 23:07 44.93418 -65.77841 34778 ft 512 kts 87°
2026-05-04 23:07 44.93527 -65.72888 34127 ft 511 kts 87°
2026-05-04 23:08 44.93634 -65.67876 33488 ft 511 kts 87°
2026-05-04 23:08 44.93738 -65.62887 32905 ft 511 kts 86°
2026-05-04 23:08 44.93840 -65.57895 32311 ft 512 kts 85°
2026-05-04 23:08 44.93941 -65.52876 31695 ft 514 kts 85°
2026-05-04 23:09 44.94040 -65.47830 31052 ft 516 kts 84°
2026-05-04 23:09 44.94138 -65.42759 30200 ft 518 kts 84°
2026-05-04 23:09 44.94233 -65.37663 29306 ft 517 kts 84°
2026-05-04 23:09 44.94323 -65.32574 28517 ft 517 kts 85°
2026-05-04 23:10 44.94411 -65.27525 27804 ft 523 kts 85°
2026-05-04 23:10 44.94500 -65.22418 27105 ft 527 kts 86°
2026-05-04 23:10 44.94584 -65.17205 26541 ft 529 kts 86°
2026-05-04 23:10 44.94653 -65.12027 26309 ft 530 kts 86°
2026-05-04 23:11 44.94718 -65.06812 24424 ft 550 kts 86°
2026-05-04 23:11 44.94754 -65.01649 24646 ft 516 kts 87°
2026-05-04 23:11 44.94831 -64.96510 23889 ft 533 kts 87°
2026-05-04 23:11 44.94919 -64.91252 22997 ft 524 kts 86°
2026-05-04 23:12 44.94999 -64.86217 22216 ft 514 kts 87°
2026-05-04 23:12 44.95074 -64.81222 21527 ft 504 kts 87°
2026-05-04 23:12 44.95146 -64.76308 20851 ft 501 kts 87°
2026-05-04 23:12 44.95214 -64.71397 20160 ft 494 kts 88°
2026-05-04 23:13 44.95278 -64.66611 19569 ft 485 kts 87°
2026-05-04 23:13 44.95311 -64.61872 19268 ft 479 kts 90°
2026-05-04 23:13 44.95283 -64.57187 18492 ft 475 kts 88°
2026-05-04 23:13 44.95347 -64.52535 17850 ft 464 kts 88°
2026-05-04 23:14 44.95407 -64.48066 17220 ft 454 kts 88°
2026-05-04 23:14 44.95462 -64.43667 16605 ft 445 kts 88°
2026-05-04 23:14 44.95513 -64.39352 16022 ft 435 kts 88°
2026-05-04 23:14 44.95562 -64.35099 15462 ft 427 kts 88°
2026-05-04 23:15 44.95607 -64.30962 14889 ft 418 kts 89°
2026-05-04 23:15 44.95649 -64.26865 14349 ft 411 kts 89°
2026-05-04 23:15 44.95687 -64.22922 13781 ft 394 kts 89°
2026-05-04 23:15 44.95722 -64.19145 13309 ft 378 kts 89°
2026-05-04 23:16 44.95754 -64.15482 12815 ft 365 kts 89°
2026-05-04 23:16 44.95784 -64.11961 12395 ft 359 kts 89°
2026-05-04 23:16 44.95813 -64.08427 11849 ft 359 kts 89°
2026-05-04 23:16 44.95840 -64.04922 11382 ft 356 kts 89°
2026-05-04 23:17 44.95865 -64.01400 10913 ft 353 kts 89°
2026-05-04 23:17 44.95889 -63.97979 10456 ft 350 kts 89°
2026-05-04 23:17 44.95911 -63.94539 9970 ft 348 kts 89°
2026-05-04 23:17 44.95932 -63.91137 9517 ft 345 kts 89°
2026-05-04 23:18 44.95950 -63.87806 9057 ft 341 kts 89°
2026-05-04 23:18 44.95968 -63.84460 8620 ft 338 kts 89°
2026-05-04 23:18 44.95985 -63.81166 8145 ft 335 kts 90°
2026-05-04 23:18 44.96000 -63.77903 7729 ft 330 kts 90°
2026-05-04 23:19 44.96014 -63.74656 7301 ft 325 kts 89°
2026-05-04 23:19 44.96027 -63.71471 6848 ft 324 kts 90°
2026-05-04 23:19 44.96039 -63.68329 6429 ft 320 kts 90°
2026-05-04 23:19 44.96050 -63.65225 6044 ft 308 kts 90°
2026-05-04 23:20 44.96060 -63.62270 5614 ft 299 kts 90°
2026-05-04 23:20 44.96318 -63.59428 5223 ft 288 kts 69°
2026-05-04 23:20 44.97233 -63.57001 5021 ft 263 kts 44°
2026-05-04 23:20 44.98476 -63.55316 5040 ft 231 kts 27°
2026-05-04 23:21 44.99748 -63.54010 4681 ft 231 kts 30°
2026-05-04 23:21 45.00849 -63.52256 4072 ft 244 kts 55°
2026-05-04 23:21 45.01354 -63.50021 3671 ft 228 kts 84°
2026-05-04 23:21 45.01234 -63.47944 3444 ft 201 kts 109°
2026-05-04 23:22 45.00678 -63.46195 3159 ft 197 kts 131°
2026-05-04 23:22 44.99842 -63.44864 2922 ft 160 kts 152°
2026-05-04 23:22 44.99004 -63.44105 2775 ft 133 kts 169°
2026-05-04 23:22 44.98147 -63.43675 2513 ft 129 kts 181°
2026-05-04 23:23 44.97310 -63.43519 2371 ft 114 kts 194°
2026-05-04 23:23 44.96475 -63.43589 2203 ft 126 kts 201°
2026-05-04 23:23 44.95644 -63.43913 2085 ft 118 kts 213°
2026-05-04 23:23 44.94959 -63.44413 1927 ft 105 kts 224°
2026-05-04 23:24 44.94371 -63.44991 1773 ft 100 kts 224°
2026-05-04 23:24 44.93807 -63.45554 1648 ft 102 kts 223°
2026-05-04 23:24 44.93210 -63.46148 1507 ft 105 kts 222°
2026-05-04 23:24 44.92630 -63.46715 1379 ft 99 kts 223°
2026-05-04 23:25 44.92041 -63.47300 1248 ft 108 kts 224°
2026-05-04 23:25 44.91425 -63.47917 1121 ft 111 kts 221°
2026-05-04 23:25 44.90792 -63.48541 955 ft 107 kts 223°
2026-05-04 23:25 44.90159 -63.49150 801 ft 115 kts 219°
2026-05-04 23:26 44.89540 -63.49772 662 ft 110 kts 219°
2026-05-04 23:26 44.88903 -63.50409 517 ft 108 kts 217°
2026-05-04 23:26 44.88338 -63.50973 459 ft 83 kts 216°
2026-05-04 23:26 44.87967 -63.51342 456 ft 38 kts 215°
2026-05-04 23:27 44.87799 -63.51508 458 ft 32 kts 214°
2026-05-04 23:27 44.87608 -63.51698 461 ft 23 kts 215°
2026-05-04 23:27 44.87475 -63.51857 464 ft 21 kts 235°
2026-05-04 23:27 44.87444 -63.52031 465 ft 10 kts 288°
2026-05-04 23:28 44.87458 -63.52067 465 ft 5 kts 302°
2026-05-04 23:28 44.87459 -63.52173 465 ft 15 kts 214°
2026-05-04 23:28 44.87368 -63.52265 466 ft 16 kts 215°
2026-05-04 23:28 44.87266 -63.52364 466 ft 19 kts 214°
2026-05-04 23:29 44.87147 -63.52482 464 ft 22 kts 216°
2026-05-04 23:29 44.87012 -63.52618 460 ft 24 kts 212°
2026-05-04 23:29 44.86912 -63.52716 456 ft 18 kts 215°
2026-05-04 23:29 44.86823 -63.52826 450 ft 19 kts 230°
2026-05-04 23:30 44.86757 -63.52932 446 ft 10 kts 229°
2026-05-04 23:30 44.86732 -63.53043 445 ft 14 kts 299°
2026-05-04 23:30 44.86797 -63.53157 447 ft 15 kts 309°
2026-05-04 23:30 44.86869 -63.53276 448 ft 12 kts 309°
2026-05-04 23:31 44.86936 -63.53329 451 ft 11 kts 19°
2026-05-04 23:31 44.87015 -63.53272 454 ft 13 kts 28°
2026-05-04 23:31 44.87101 -63.53215 456 ft 13 kts
2026-05-04 23:31 44.87179 -63.53185 459 ft 8 kts 25°
2026-05-04 23:32 44.87231 -63.53185 460 ft 7 kts 288°
2026-05-04 23:32 44.87223 -63.53206 459 ft 2 kts 207°
2026-05-04 23:32 44.87222 -63.53206 459 ft 0 kts 207°